Location: Grand Rapids
(42.9630°N, 85.6680°W)
Time: 03:26:53
(UTC-04:00)

A-11 Canister half - Pass Details

Date: 05 June 2024
Orbit: 1524 x 1684 km, 47.3° (Epoch: 21 June)

Event Time Altitude Azimuth Distance (km) Brightness Sun altitude
Rises 19:36:05 0° 243° (WSW) 4,670 12.3 16.2°
Reaches altitude 10° 19:39:07 10° 243° (WSW) 3,686 11.8 15.6°
Maximum altitude 19:48:25 88° 157° (SSE) 1,535 9.3 14.0°
Drops below altitude 10° 19:57:53 10° 68° (ENE) 3,743 10.6 12.4°
Sets 20:00:58 0° 68° (ENE) 4,746 11.1 11.8°
